Вернуться в каталог

DELTA 1 DEB

АктивенUNKNOWN
NORAD 10714·DEBRIS·🇺🇸 United States

Запущен Jul 29, 1976 с Vandenberg Space Force Base

Loading…

Ближайшие Пролёты (ближайшие 24 часа)

TLE

СвежийSource: Space-Track

Эпоха: Sep 13, 2026, 15:15 UTC

1 10714U 76077AK  26256.63600785  .00000588  00000-0  90893-2 0  9998
2 10714 103.3724 149.0572 0566989 206.5782 179.1143 11.54584439103257

Отслеживайте DELTA 1 DEB в реальном времени с AllMySat

Download on the App Store